Location: Banios
(43.0451°N, 0.2335°E)
Time: 01:54:38
(UTC+00:00)

SR - Visible Passes

Search period start: 12 May 2021 00:00
Search period end: 22 May 2021 00:00
Orbit: 573 x 882 km, 66.7° (Epoch: 11 May)

Date Brightness Start Highest point End Pass type
(mag) Time Alt. Az. Time Alt. Az. Time Alt. Az.
12 May ? 00:18:31 12° E 00:18:31 12° E 00:20:43 10° ENE visible
12 May ? 01:57:54 49° SSW 01:59:32 80° ESE 02:05:31 10° NNE visible
12 May ? 03:37:48 10° W 03:42:22 23° NW 03:47:00 10° N visible
13 May ? 01:09:22 42° SE 01:09:53 43° ESE 01:15:28 10° NE visible
13 May ? 02:48:45 20° WSW 02:52:07 36° NW 02:57:35 10° NNE visible
14 May ? 00:20:46 23° E 00:20:46 23° E 00:24:58 10° NE visible
14 May ? 02:00:10 41° WSW 02:02:03 62° NW 02:07:59 10° NNE visible
14 May ? 03:41:57 10° WNW 03:45:24 16° NW 03:48:53 10° N visible
14 May ? 23:32:09 11° E 23:32:09 11° E 23:32:59 10° E visible
15 May ? 01:11:32 67° S 01:12:13 76° ESE 01:18:10 10° NE visible
15 May ? 02:50:55 12° W 02:54:59 24° NW 02:59:42 10° N visible
16 May ? 00:22:51 41° ESE 00:22:51 41° ESE 00:28:05 10° NE visible
16 May ? 02:02:14 26° W 02:04:44 38° NW 02:10:16 10° NNE visible
16 May ? 03:47:04 10° NW 03:48:36 11° NNW 03:50:09 10° NNW visible
16 May ? 23:34:08 21° E 23:34:08 21° E 23:37:31 10° ENE visible
17 May ? 01:13:31 53° WSW 01:14:42 65° WNW 01:20:39 10° NNE visible
17 May ? 02:54:22 10° WNW 02:57:59 16° NW 03:01:38 10° N visible
18 May ? 00:24:45 71° SE 00:24:53 72° ESE 00:30:49 10° NE visible
18 May ? 02:04:07 15° W 02:07:35 25° NW 02:12:25 10° NNE visible
18 May ? 23:35:56 37° E 23:35:56 37° E 23:40:42 10° NE visible
19 May ? 01:15:18 30° W 01:17:22 40° NW 01:22:57 10° NNE visible
19 May ? 02:59:19 10° NW 03:01:10 11° NNW 03:03:01 10° N visible
19 May ? 22:47:04 19° E 22:47:04 19° E 22:50:03 10° ENE visible
20 May ? 00:26:26 59° WSW 00:27:22 69° WNW 00:33:19 10° NNE visible
20 May ? 02:06:49 10° WNW 02:10:35 17° NW 02:14:21 10° N visible
20 May ? 23:37:30 67° ESE 23:37:33 67° ESE 23:43:28 10° NE visible
21 May ? 01:16:53 16° W 01:20:11 26° NW 01:25:06 10° NNE visible
21 May ? 22:48:31 35° E 22:48:31 35° E 22:53:19 10° NE visible
